Torna al catalogo

STARLINK-35297

AttivoComunicazioniVLEO
NORAD 66010·PAYLOAD·🇺🇸 United States

Lanciato Oct 16, 2025 da Cape Canaveral Space Force Station

Loading…

Prossimi Passaggi (prossime 24 ore)

TLE

AggiornatoSource: CelesTrak SupGP

Epoca: Sep 14, 2026, 22:54 UTC

1 66010C 25232F   26257.95465278  .00048491  00000+0  14330-2 0  2570
2 66010  53.1582 301.3711 0001259  85.6701 183.8530 15.34359655    14

Traccia STARLINK-35297 in tempo reale con AllMySat

Download on the App Store